Location: ????????
(41.4400°N, 22.7954°E)
Time: 09:23:04
(UTC+00:00)

Daily predictions for brighter satellites

Satellite Brightness Start Highest point End
(mag) Time Altitude Azimuth Time Altitude Azimuth Time Altitude Azimuth
STARLINK-1224 4.0 18:20:39 10° WSW 18:24:47 72° NW 18:28:56 10° NE
GENESIS II 4.3 18:21:09 10° NNW 18:25:11 89° SW 18:29:06 10° SSE
STARLINK-1066 4.1 18:22:11 10° WNW 18:26:15 56° SW 18:30:17 10° SE
Cosmos 1140 Rocket 3.6 18:21:28 10° NNW 18:26:43 87° WSW 18:31:57 10° SSE
Cosmos 1461 3.7 18:25:06 10° S 18:28:37 29° ESE 18:32:18 10° NE
MOS 1 Rocket 3.1 18:24:42 10° NNE 18:29:04 85° ESE 18:33:20 10° S
STARLINK-1225 4.1 18:25:40 10° WSW 18:29:47 66° NW 18:33:54 10° NE
Cosmos 1782 Rocket 3.6 18:25:21 10° N 18:29:51 84° E 18:34:19 10° S
ASTEX 1 3.6 18:25:16 10° S 18:30:09 79° W 18:35:07 10° N
Iridium 51 4.4 18:26:30 10° SSE 18:30:16 52° E 18:33:48 10° NNE
STARLINK-1081 4.2 18:27:12 10° WNW 18:31:14 50° SW 18:35:14 10° SSE
Okean 3 3.9 18:27:10 10° SSE 18:31:14 43° E 18:35:19 10° NNE
SJ-6B 3.1 18:27:48 10° S 18:31:30 66° W 18:35:13 10° NNW
STARLINK-1096 4.5 18:29:30 10° NW 18:33:29 43° NNE 18:37:26 10° ESE
Cosmos 1703 Rocket 4.4 18:29:37 10° SSW 18:33:51 54° W 18:38:06 10° N
Cosmos 1544 3.0 18:30:43 10° N 18:34:21 80° E 18:37:56 10° S
STARLINK-1230 4.3 18:30:40 10° WSW 18:34:46 61° NW 18:38:52 10° NE
Meteor 2-9 Rocket 4.1 18:30:10 10° N 18:35:32 79° E 18:40:50 10° SSE
STARLINK-1070 4.4 18:32:12 10° WNW 18:36:10 45° SW 18:40:08 10° SSE
Cosmos 2221 Rocket 3.9 18:33:48 10° SSE 18:38:08 49° E 18:42:31 10° NNE
ASTRO E2 4.4 18:35:37 10° SSW 18:38:13 17° S 18:40:49 10° SE
STARLINK-1079 4.3 18:34:29 10° NW 18:38:29 46° NNE 18:42:28 10° ESE
STARLINK-1243 4.4 18:35:42 10° WSW 18:39:46 56° NNW 18:43:51 10° NE
STARLINK-1116 4.2 18:39:26 10° NW 18:43:29 50° NNE 18:47:30 10° ESE
SL-4 R/B 1.1 18:44:17 10° NNW 18:47:19 70° ENE 18:49:44 13° SE
Cosmos 2278 Rocket 2.7 18:43:35 10° SSW 18:49:13 67° WNW 18:54:54 10° NNE
USA 245 4.5 18:50:18 12° ESE 18:51:57 16° ENE 18:53:44 10° NNE
Sich 1 Rocket 3.7 18:48:36 10° N 18:53:13 85° W 18:57:47 10° S
STARLINK-1094 4.0 18:49:22 10° NW 18:53:28 58° NE 18:57:08 12° ESE
Resurs 01 Rocket 1.7 18:50:59 10° SSE 18:55:24 71° ENE 18:59:51 10° N
Meteor 1-12 Rocket 4.3 18:50:59 10° N 18:56:37 64° ENE 19:02:17 10° SSE
STARLINK-1117 3.9 18:54:20 10° NW 18:58:27 63° NE 19:01:55 14° ESE
Okean 2 Rocket 3.1 18:54:25 10° N 18:58:50 67° E 19:03:03 11° SSE
GPS 2-04 Rocket1 3.3 18:56:17 10° WSW 18:59:25 32° S 19:01:44 16° ESE
Cosmos 2279 Rocket 4.1 18:53:31 10° N 18:59:40 59° E 19:05:36 11° SSE
NOSS 8 (H) 4.4 18:59:12 10° SSW 19:02:28 47° ESE 19:05:24 10° NE
SPOT 3 Rocket 3.9 18:57:41 10° S 19:02:46 64° WSW 19:07:54 10° NNW
STARLINK-1078 3.8 18:59:18 10° NW 19:03:26 69° NE 19:06:42 16° ESE
Cosmos 371 Rocket 3.4 18:59:43 10° SSW 19:04:34 84° WNW 19:09:28 10° NNE
Cosmos 1850 Rocket 4.4 18:59:40 10° N 19:04:54 52° ENE 19:09:06 16° SE
Cosmos 1954 Rocket 4.4 18:59:42 10° NNW 19:04:55 63° WSW 19:10:08 10° S
Spot 2 Rocket 3.9 19:03:52 14° SE 19:07:54 47° ENE 19:12:43 10° N
Terra 3.8 19:05:39 10° E 19:08:20 15° ENE 19:11:01 10° NNE
SPOT 1/Viking Rocket 4.4 19:04:39 15° SE 19:08:25 35° ENE 19:13:03 10° N
STARLINK-1108 3.7 19:04:17 10° NW 19:08:25 75° NE 19:11:29 17° ESE
BREEZE-M DEB (TANK) 4.1 19:08:16 18° SE 19:08:47 18° ESE 19:12:23 10° ENE
SL-4 R/B 3.6 19:05:43 10° S 19:09:05 20° SE 19:12:33 10° E
H-2A R/B 4.5 19:08:34 10° SW 19:12:03 19° W 19:15:37 10° NW
STARLINK-1071 3.6 19:09:15 10° NW 19:13:24 82° NE 19:16:16 19° SE
Cosmos 2151 Rocket 3.7 19:09:02 10° N 19:13:34 67° E 19:17:10 16° SSE
STARLINK-1110 3.6 19:13:02 10° NW 19:17:12 87° NE 19:19:54 21° SE
Abrixas rocket 3.4 19:15:24 10° NW 19:18:06 32° NNE 19:20:22 13° E
Cosmos 1331 Rocket 4.3 19:17:20 11° S 19:22:01 44° ESE 19:26:55 10° NNE
STARLINK-1124 3.6 19:19:12 10° NW 19:23:22 84° SW 19:25:50 23° SE
STARLINK-1122 3.6 19:24:11 10° NW 19:28:20 77° SW 19:30:37 25° SE
Cosmos 1300 Rocket 3.9 19:24:17 10° NNW 19:28:42 65° W 19:32:31 13° S
Aureole 2 Rocket 2.1 19:28:01 10° SSW 19:31:09 84° WNW 19:34:10 10° NNE
NOSS 2-2 (D) 3.0 19:28:20 10° SSW 19:31:52 61° ESE 19:35:35 10° NE
Cosmos 1437 Rocket 2.8 19:28:58 10° SSW 19:32:44 76° W 19:36:34 10° N
STARLINK-1126 3.7 19:29:13 10° NW 19:33:22 70° SW 19:35:27 28° SE
Meteor 1-15 Rocket 4.4 19:29:37 10° N 19:35:32 66° ENE 19:39:26 22° SSE
CENTAUR R/B 4.4 19:29:11 10° NNW 19:36:03 31° NE 19:43:28 10° E
Cosmos 304 Rocket 3.7 19:31:22 10° SSW 19:36:08 88° WNW 19:40:57 10° NNE
Cosmos 1378 3.8 19:35:06 29° SE 19:36:09 35° E 19:39:34 10° NNE
STARLINK-1082 3.7 19:34:09 10° WNW 19:38:16 64° SW 19:40:10 29° SSE
Lacrosse 5 2.4 19:35:12 10° NW 19:40:04 49° SW 19:42:55 23° SSE
ISS -3.0 19:40:01 10° WNW 19:43:12 40° SW 19:44:06 32° S
STARLINK-1100 3.8 19:39:08 10° WNW 19:43:12 58° SW 19:44:56 31° SSE
Cosmos 1674 Rocket 3.8 19:42:08 12° SSW 19:46:09 70° W 19:50:33 10° N
STARLINK-1083 4.0 19:44:09 10° WNW 19:48:11 52° SW 19:49:44 32° SSE
Cosmos 1378 Rocket 3.5 19:45:49 18° S 19:49:04 86° W 19:53:28 10° N
NOSS 2-2 (E) 3.5 19:45:38 10° SW 19:49:09 64° NW 19:53:03 10° NNE
EXPRESS MD2 4.2 19:48:18 10° W 19:51:19 51° NNW 19:56:55 10° ENE
STARLINK-1125 4.1 19:49:10 10° WNW 19:53:09 47° SW 19:54:32 33° S
Cosmos 2297 4.0 19:47:52 10° SSW 19:53:31 71° WNW 19:59:14 10° NNE
Cosmos 1943 Rocket 2.3 19:50:21 21° S 19:53:49 52° ESE 19:59:14 10° NNE
SL-27 R/B 4.4 19:52:44 10° NNE 19:55:16 18° ENE 19:55:55 17° ENE
STARLINK-1098 4.4 19:51:27 10° NW 19:55:27 45° NNE 19:57:33 24° E
Cosmos 1833 Rocket 4.3 19:50:49 10° NW 19:55:27 27° WSW 20:00:05 10° SSW
Cosmos 1766 3.8 19:52:39 10° N 19:56:28 43° ENE 19:57:24 36° ESE
IGS 5A 3.7 19:55:29 27° S 19:57:39 62° W 20:01:47 10° NNW
STARLINK-1109 4.3 19:54:11 10° WNW 19:58:07 43° SW 19:59:18 33° S
STARLINK-1123 4.3 19:56:23 10° NW 20:00:25 48° NNE 20:02:19 27° E
Landsat 7 4.1 19:57:48 24° S 20:00:35 63° W 20:05:19 10° NNW
BREEZE-M DEB 2.7 19:59:32 10° WSW 20:01:49 67° NNW 20:06:42 10° ENE
Cosmos 2082 Rocket 3.2 19:57:00 10° NW 20:02:18 40° WSW 20:06:02 18° SSW
STARLINK-1091 4.4 19:59:10 10° WNW 20:03:03 39° SW 20:04:04 33° SSW
STARLINK-1097 4.2 20:01:23 10° NW 20:05:27 52° NNE 20:07:07 31° E
SeaSat 1 4.2 20:02:36 10° ENE 20:04:49 16° E 20:04:49 16° E
Cosmos 1975 Rocket 3.3 20:07:29 41° SE 20:08:31 50° E 20:12:48 10° NNE
Cosmos 2369 Rocket 2.4 20:07:22 31° SSE 20:09:43 51° ESE 20:15:11 10° NE
STARLINK-1099 4.0 20:06:20 10° NW 20:10:25 56° NNE 20:11:54 35° E
Cosmos 292 Rocket 4.4 20:09:53 35° ESE 20:10:27 36° ESE 20:14:53 10° NE
NOSS 2-2 (C) 4.2 20:10:24 10° SW 20:13:49 44° NW 20:17:32 10° NNE
STARLINK-1104 3.9 20:11:18 10° NW 20:15:25 61° NE 20:16:40 40° E
SPOT 5 3.0 20:14:18 36° SSE 20:16:34 89° WSW 20:21:56 10° NNW
ATLAS 2AS CENTAUR R/B 3.4 20:13:12 27° SSE 20:16:56 43° ESE 20:24:20 10° NE
Cosmos 2026 Rocket 4.1 20:15:52 33° SSE 20:18:39 60° E 20:24:53 10° NNE
STARLINK-1144 3.8 20:16:16 10° NW 20:20:25 67° NE 20:21:27 46° E
ATLAS CENTAUR R/B 3.5 20:23:28 15° ENE 20:23:28 15° ENE 20:24:32 10° ENE
ERS-1 Rocket 3.1 20:19:41 34° S 20:21:50 68° WSW 20:26:52 10° NNW
NOSS 3-2 (A) 4.2 20:15:32 10° NNW 20:23:09 72° NE 20:27:48 30° SE
Cosmos 1656 Rocket 4.4 20:23:31 32° ESE 20:23:55 32° ESE 20:28:50 10° NE
Meteor 1-22 Rocket 4.2 20:18:43 10° N 20:24:37 80° E 20:26:47 40° SSE
STARLINK-1103 3.7 20:21:14 10° NW 20:25:23 73° NE 20:26:14 53° ESE
Cosmos 1025 Rocket 4.4 20:26:06 25° E 20:26:06 25° E 20:29:19 10° NE
Thor Agena Rocket 4.4 20:21:31 10° NE 20:26:12 31° E 20:26:36 31° ESE
Okean 2 3.3 20:25:56 52° SSW 20:26:55 87° W 20:31:06 10° N
APEX 4.4 20:27:34 34° S 20:30:19 59° ESE 20:35:51 10° NNE
STARLINK-1101 3.6 20:26:12 10° NW 20:30:21 79° NE 20:31:00 61° ESE
Resurs 01 Rocket 4.4 20:31:25 10° WSW 20:32:21 11° W 20:33:18 10° WNW
USA 238 DEB 3.9 20:27:42 10° NNW 20:34:58 80° NE 20:38:26 35° SE
Cosmos 1953 4.4 20:32:28 10° NNE 20:35:00 16° ENE 20:35:00 16° ENE
USA 238 3.9 20:27:48 10° NNW 20:35:04 80° NE 20:38:33 35° SE
STARLINK-1102 3.5 20:31:11 10° NW 20:35:21 86° NE 20:35:48 70° ESE
Okean 1 Rocket 4.4 20:32:01 10° NNW 20:36:02 33° W 20:37:53 24° SW
Cosmos 968 Rocket 4.2 20:31:21 10° N 20:36:12 41° ENE 20:37:31 34° E
Cosmos 1805 3.8 20:32:35 10° NNW 20:36:24 49° W 20:37:07 43° SW
Cosmos 1470 3.6 20:33:04 10° N 20:36:30 36° ENE 20:36:30 36° ENE
STARLINK-1111 3.4 20:36:09 10° NW 20:40:19 87° SW 20:40:34 78° SE
BREEZE-M DEB (TANK) 4.0 20:30:44 10° SSW 20:39:13 36° S 20:39:13 36° S
Cosmos 1455 Rocket 2.9 20:37:31 10° N 20:41:52 76° E 20:42:18 68° SE
Meteor 2-13 Rocket 4.4 20:39:29 39° S 20:41:57 80° E 20:48:08 10° N
STARLINK-1073 3.4 20:41:09 10° NW 20:45:18 80° SW 20:45:21 79° SSW
SL-8 R/B 3.6 20:40:38 10° WNW 20:45:27 85° SSW 20:46:17 61° SE
Terra 2.0 20:44:22 46° SSW 20:45:32 63° WSW 20:50:17 10° NNW
SL-4 R/B 2.4 20:43:36 10° WSW 20:48:21 82° NW 20:53:14 10° NE
Cosmos 1842 3.5 20:48:52 56° WSW 20:49:17 60° W 20:53:09 10° N
Cosmos 1758 3.9 20:45:53 10° N 20:49:40 46° ENE 20:49:40 46° ENE
STARLINK-1121 3.6 20:46:07 10° NW 20:50:08 72° WSW 20:50:08 72° WSW
ATLAS 3B CENTAUR R/B 3.7 20:41:15 10° WSW 20:50:52 30° SSW 20:50:57 30° SSW
Abrixas rocket 4.4 20:50:51 10° WNW 20:51:50 18° W 20:51:50 18° W
STARLINK-1106 3.7 20:51:08 10° WNW 20:54:56 63° WSW 20:54:56 63° WSW
Cosmos 2263 4.1 20:57:25 42° SSW 20:59:23 88° WNW 21:05:03 10° NNE
STARLINK-1112 4.0 20:56:06 10° WNW 20:59:41 55° WSW 20:59:41 55° WSW
STARLINK-1128 4.2 21:01:06 10° WNW 21:04:28 47° W 21:04:28 47° W
Cosmos 1536 Rocket 3.6 21:08:36 63° ENE 21:08:36 63° ENE 21:12:39 10° NNE
Meteor 1-21 4.4 21:07:51 41° SW 21:09:46 67° WNW 21:15:22 10° N
STARLINK-1113 4.4 21:06:07 10° WNW 21:09:15 41° W 21:09:15 41° W
COSMOS 2455 2.9 21:09:45 52° SE 21:10:19 55° ESE 21:16:11 10° NE
USA 215 4.5 21:06:26 10° E 21:12:21 38° NNE 21:18:16 10° NW
Cosmos 1271 Rocket 3.0 21:14:22 64° NW 21:14:22 64° NW 21:17:55 10° N
Spot 4 3.9 21:14:22 60° ESE 21:14:47 63° ENE 21:19:36 10° N
Cosmos 1242 Rocket 3.6 21:15:26 41° WNW 21:15:26 41° WNW 21:18:49 10° N
Cosmos 1354 Rocket 4.2 21:10:08 10° NNW 21:15:23 59° ENE 21:16:12 52° ESE
Cosmos 1486 Rocket 4.0 21:12:17 10° NNW 21:17:33 66° WSW 21:18:13 60° SSW
Cosmos 1833 4.2 21:12:32 10° NNW 21:18:11 74° ENE 21:19:13 58° SE
Cosmos 1544 Rocket 3.8 21:14:20 10° NNW 21:18:36 58° W 21:18:39 58° W
Cosmos 1707 3.2 21:24:35 60° NNW 21:24:35 60° NNW 21:27:57 10° N
Cosmos 1417 Rocket 4.5 21:20:23 10° N 21:26:43 79° W 21:28:19 53° SSW
CENTAUR R/B 3.1 21:19:30 10° NW 21:27:45 86° WSW 21:31:08 43° SSE
ALOS 2 3.3 21:30:24 42° ENE 21:30:24 42° ENE 21:34:29 10° N
SL-27 R/B 4.4 21:27:21 10° NW 21:29:28 23° WNW 21:29:28 23° WNW
ATLAS 3B R/B 3.2 21:24:06 10° NNW 21:30:45 52° NE 21:33:57 31° ESE
NOSS 3-2 (C) 4.1 21:25:09 10° NW 21:32:52 73° WSW 21:35:37 46° S
Cosmos 1726 3.1 21:30:05 10° N 21:32:50 45° NNE 21:32:50 45° NNE
Meteor 1-16 Rocket 4.1 21:29:51 10° N 21:35:19 65° ENE 21:35:51 61° ESE
Cosmos 1992 Rocket 4.5 21:36:07 43° WSW 21:37:27 55° WNW 21:42:35 10° N
Cosmos 1867 3.5 21:31:58 10° NNW 21:37:28 78° ENE 21:38:07 68° ESE
Cosmos 1943 Rocket 4.2 21:33:27 10° WSW 21:37:53 24° NW 21:42:22 10° N
COSMOS 2487 4.0 21:34:48 10° N 21:37:03 34° NNE 21:37:03 34° NNE
NOSS 3-4 (A) 3.7 21:36:32 31° SW 21:39:27 65° NW 21:45:43 10° NNE
NOSS 3-4 (C) 3.6 21:36:40 31° SW 21:39:33 66° NW 21:45:49 10° NNE
Cosmos 2098 Rocket 4.5 21:39:41 48° SE 21:41:21 60° E 21:48:41 10° NNE
SeaSat 1 2.7 21:38:44 10° NNE 21:43:37 63° WNW 21:44:34 51° WSW
EO 1 Del DPAF 4.4 21:41:14 10° N 21:44:29 38° WNW 21:44:29 38° WNW
Cosmos 1606 Rocket 4.5 21:40:48 10° N 21:44:29 39° ENE 21:44:29 39° ENE
Cosmos 2315 Rocket 4.1 21:44:51 10° N 21:51:01 64° E 21:52:08 54° SE
RESURS DK-1 3.5 21:53:57 36° NE 21:53:57 36° NE 21:56:38 10° NNE
Meteor 2-10 4.1 21:48:38 10° NNW 21:53:36 61° W 21:53:43 60° WSW
Cosmos 2369 Rocket 4.1 21:49:24 10° WSW 21:54:01 25° NW 21:58:40 10° N
BREEZE-M DEB (TANK) 4.2 21:51:45 10° NW 21:55:05 41° NNE 21:59:55 10° E
Cosmos 2084 4.4 21:57:07 41° ENE 21:57:07 41° ENE 22:00:11 10° NE
S3M 4.2 21:50:56 10° NNW 21:56:58 57° W 21:58:10 49° SW
Cosmos 2227 Rocket 4.5 21:53:50 10° N 21:57:36 18° NE 22:01:20 10° E
ATLAS CENTAUR R/B 2.4 21:59:35 40° WNW 22:00:01 42° NW 22:04:00 10° NNE
Cosmos 1626 4.2 22:01:28 21° NE 22:01:28 21° NE 22:03:16 10° NNE
Cosmos 1340 Rocket 3.7 21:59:23 10° NNW 22:02:31 45° NW 22:02:31 45° NW
Exosat Rocket 4.2 21:55:45 10° NNW 22:04:45 81° WSW 22:06:20 57° S
ATLAS 2AS CENTAUR R/B 3.8 22:00:30 11° WSW 22:07:53 50° NW 22:15:36 10° NNE
Cosmos 1908 4.2 22:04:38 10° N 22:07:21 44° N 22:07:21 44° N
Cosmos 1953 3.8 22:07:55 10° NNW 22:10:41 31° WNW 22:10:41 31° WNW
BREEZE-M DEB (TANK) 3.8 22:05:02 10° WNW 22:11:56 52° W 22:11:56 52° W
FALCON 9 R/B 3.7 22:19:35 31° ESE 22:19:35 31° ESE 22:26:47 10° E
Cosmos 1809 Rocket 4.3 22:21:17 67° SSE 22:22:10 82° E 22:28:22 10° N
ATLAS 5 CENTAUR R/B 3.9 22:21:46 17° WNW 22:22:29 18° NW 22:24:22 10° N
Cosmos 1777 Rocket 3.9 22:17:54 10° NNW 22:23:11 84° ENE 22:23:18 83° ESE
Cosmos 1892 Rocket 3.9 22:25:06 63° NNE 22:25:06 63° NNE 22:28:49 10° N
EO 1 Delta rocket 4.0 22:19:11 10° NNE 22:24:37 71° E 22:24:37 71° E
SL-4 R/B 4.3 22:24:24 10° WNW 22:28:39 30° NNW 22:32:54 10° NE
Cosmos 2228 3.6 22:25:14 10° NNW 22:28:36 51° NW 22:28:36 51° NW
Cosmos 1726 Rocket 3.9 22:25:54 10° N 22:29:30 60° NNW 22:29:30 60° NNW
Cosmos 921 Rocket 3.5 22:31:52 57° NNE 22:31:52 57° NNE 22:35:23 10° NNE
YAOGAN 11 4.3 22:31:51 66° N 22:31:51 66° N 22:35:38 10° N
Meteor 1-24 Rocket 3.4 22:33:05 78° SE 22:33:16 79° E 22:38:43 10° NNE
Cosmos 1300 3.9 22:30:48 10° N 22:33:33 38° NE 22:33:33 38° NE
CZ-4C R/B 3.4 22:36:20 25° E 22:36:20 25° E 22:40:02 10° NE
STARLINK-1233 4.4 22:35:17 10° NW 22:39:11 49° NNE 22:39:11 49° NNE
Cosmos 220 Rocket 4.3 22:41:33 64° NNE 22:41:33 64° NNE 22:45:21 10° NNE
STARLINK-1204 4.4 22:40:16 10° NW 22:43:59 51° NNE 22:43:59 51° NNE
Resurs 1-4 Rocket 4.3 22:42:29 10° ENE 22:44:58 13° E 22:46:05 13° ESE
Cosmos 1980 Rocket 4.3 22:45:27 12° ESE 22:46:07 13° E 22:48:27 10° ENE
SJ 16-02 3.0 22:42:30 10° N 22:46:18 27° ENE 22:47:12 25° E
STARLINK-1238 4.3 22:45:15 10° NW 22:48:47 52° N 22:48:47 52° N
Helios 1B rocket 3.0 22:46:48 10° NNE 22:50:09 55° NE 22:50:09 55° NE
Cosmos 1244 Rocket 4.5 22:51:03 59° SW 22:52:06 70° W 22:58:16 10° N
STARLINK-1201 4.4 22:50:12 10° NW 22:53:33 51° NNW 22:53:33 51° NNW
USA 215 3.1 22:52:56 48° SE 22:55:00 80° SW 23:01:35 10° NW
COSMOS 2455 4.5 22:52:50 16° W 22:56:34 28° NW 23:01:42 10° N
Cosmos 1745 Rocket 4.0 22:55:32 56° SE 22:56:36 66° E 23:02:40 10° NNE
CZ-2D R/B 4.0 22:55:26 10° NE 22:58:47 17° E 22:59:51 16° ESE
STARLINK-1206 4.4 22:55:11 10° NW 22:58:21 48° NNW 22:58:21 48° NNW
Helios 1A 4.4 23:01:35 29° WNW 23:01:35 29° WNW 23:04:21 10° NNW
Cosmos 2219 3.3 22:55:29 10° NNW 23:01:09 70° ENE 23:02:17 55° SE
Meteor 2-16 Rocket 4.3 23:00:55 65° SSW 23:01:56 87° W 23:08:05 10° N
STARLINK-1205 4.5 23:00:09 10° NW 23:03:07 45° NW 23:03:07 45° NW
Cosmos 2297 Rocket 2.5 22:59:49 10° NNW 23:05:26 62° ENE 23:07:00 44° ESE
Cosmos 468 Rocket 4.3 23:05:31 51° ESE 23:05:35 51° ESE 23:10:33 10° NNE
PSLV R/B 3.7 23:03:44 10° N 23:07:54 71° NNW 23:07:54 71° NNW
Lacrosse 4 Rocket 3.7 23:05:38 10° N 23:08:58 21° NE 23:11:40 13° E
Cosmos 1626 Rocket 3.7 23:11:50 71° N 23:11:50 71° N 23:15:45 10° N
Cosmos 2058 Rocket 4.0 23:08:26 10° NNW 23:11:58 40° WNW 23:11:58 40° WNW
Timation 2 Rocket 4.2 23:06:45 10° NW 23:12:42 48° WSW 23:12:55 48° WSW
Cosmos 1455 3.9 23:09:46 10° NNE 23:12:54 26° ENE 23:12:54 26° ENE
Meteor 2-10 Rocket 4.4 23:08:26 10° N 23:13:20 41° ENE 23:14:39 34° ESE
Meteor 1-29 4.4 23:11:42 10° NNE 23:13:48 36° NNE 23:13:48 36° NNE
Cosmos 1898 Rocket 4.2 23:10:40 10° N 23:15:51 49° ENE 23:17:36 35° ESE
Cosmos 192 4.2 23:18:27 75° W 23:18:38 77° WNW 23:23:37 10° NNE
IRAS Rocket 4.5 23:18:19 45° SE 23:19:54 65° ENE 23:25:24 10° N
ATLAS 3B R/B 3.5 23:15:11 10° NW 23:21:09 34° WSW 23:21:09 34° WSW
SL-16 R/B 3.7 23:19:18 17° ESE 23:23:23 38° ENE 23:28:59 10° N
Meteor 1-21 Rocket 4.3 23:22:26 54° SE 23:23:25 64° E 23:29:06 10° NNE
Cosmos 1656 3.6 23:27:53 62° SW 23:28:49 77° WNW 23:34:27 10° NNE
ATLAS CENTAUR R/B 2.4 23:28:17 10° NNW 23:31:04 55° NE 23:37:10 10° SE
Cosmos 1386 Rocket 4.4 23:29:51 56° SW 23:31:07 73° W 23:37:20 10° N
Cosmos-2242 4.2 23:27:47 10° N 23:31:40 33° ENE 23:32:30 31° E
Cosmos 1697 Rocket 2.7 23:32:47 56° SSE 23:33:41 65° ESE 23:39:19 10° NNE
Cosmos 1626 4.3 23:36:00 17° WNW 23:36:00 17° WNW 23:37:58 10° NNW
Cosmos 1570 Rocket 4.4 23:35:09 46° SE 23:35:57 50° ESE 23:41:04 10° NNE
BREEZE-M R/B 4.2 23:31:47 10° W 23:38:02 43° NNW 23:41:22 10° NE
Cosmos 1812 Rocket 3.5 23:34:32 10° N 23:38:55 81° WNW 23:38:55 81° WNW
SL-19 R/B 4.2 23:34:24 10° NNE 23:40:01 85° WNW 23:41:19 56° SSW
Cosmos 990 Rocket 3.9 23:36:49 10° NNW 23:42:06 86° ENE 23:43:09 58° SSE
Cosmos 2227 Rocket 2.1 23:36:38 10° NNW 23:42:20 79° WSW 23:43:30 57° S
USA 81 4.0 23:42:28 63° S 23:43:21 86° E 23:48:40 10° N
Cosmos 1825 Rocket 3.7 23:44:53 58° ESE 23:45:06 59° E 23:49:22 10° NNE
Cosmos 1709 Rocket 3.9 23:44:10 52° S 23:45:50 87° E 23:52:01 10° N
Cosmos 1602 Rocket 4.0 23:47:23 46° WNW 23:47:23 46° WNW 23:51:26 10° N
Cosmos 2208 Rocket 4.4 23:47:08 46° SE 23:48:09 53° ESE 23:53:20 10° NNE
Alouette 2 Rocket 3.6 23:45:08 10° N 23:50:13 69° ENE 23:50:43 61° ESE
SL-16 R/B 4.5 23:50:30 10° SE 23:53:08 13° E 23:55:46 10° ENE
Cosmos 841 Rocket 3.6 23:53:16 52° SSE 23:54:18 65° ESE 23:59:29 10° NNE
